Location: Chorzów
(50.2975°N, 18.9546°E)
Time: 14:16:44
(UTC+01:00)

N. Korean satellite - Visible Passes

Search period start: 14 November 2019 00:00
Search period end: 24 November 2019 00:00
Orbit: 456 x 506 km, 97.2° (Epoch: 13 November)

Date Brightness Start Highest point End Pass type
(mag) Time Alt. Az. Time Alt. Az. Time Alt. Az.
14 Nov 10.1 04:35:17 10° NE 04:37:17 14° E 04:39:17 10° ESE visible
14 Nov 6.7 06:07:21 10° N 06:11:02 57° WNW 06:14:40 10° SSW visible
14 Nov 6.8 16:46:55 10° S 16:50:32 75° W 16:54:13 10° NNW visible
15 Nov 6.9 05:41:57 10° NNE 05:45:41 74° ESE 05:49:23 10° S visible
15 Nov 10.0 17:57:00 10° WSW 17:58:55 14° W 18:00:54 10° WNW visible
16 Nov 8.3 05:16:44 10° NNE 05:20:15 38° E 05:23:42 10° SSE visible
16 Nov 9.2 17:30:17 10° SSW 17:33:19 25° W 17:36:25 10° NW visible
17 Nov 9.4 04:51:50 10° NE 04:54:42 21° E 04:57:32 10° SE visible
17 Nov 7.8 17:04:17 10° S 17:07:48 47° W 17:11:24 10° NNW visible
18 Nov 10.2 04:27:47 10° ENE 04:29:04 11° E 04:30:20 10° ESE visible
18 Nov 6.6 05:59:12 10° N 06:02:55 70° WNW 06:06:35 10° SSW visible
18 Nov 6.6 16:38:44 10° SSE 16:42:23 88° ENE 16:46:06 10° NNW visible
19 Nov 7.3 05:33:50 10° NNE 05:37:32 60° E 05:41:10 10° S visible
19 Nov 9.8 17:48:15 10° SW 17:50:41 17° W 17:53:09 10° NW visible
20 Nov 8.7 05:08:42 10° NNE 05:12:03 31° E 05:15:20 10° SSE visible
20 Nov 8.8 17:21:50 10° SSW 17:25:06 30° W 17:28:25 10° NNW visible
21 Nov 9.7 04:43:56 10° NE 04:46:27 17° E 04:48:56 10° SE visible
21 Nov 6.9 06:16:31 10° N 06:20:05 44° WNW 06:23:35 10° SW visible
21 Nov 7.3 16:55:59 10° S 16:59:36 58° W 17:03:17 10° NNW visible
22 Nov 6.6 05:51:01 10° NNE 05:54:45 86° WNW 05:58:24 10° SSW visible
22 Nov 6.6 16:30:33 10° SSE 16:34:12 72° ENE 16:37:55 10° N visible
22 Nov 10.2 18:06:55 10° WSW 18:08:04 11° W 18:09:14 10° WNW visible
23 Nov 7.7 05:25:43 10° NNE 05:29:19 48° E 05:32:51 10° S visible
23 Nov 9.5 17:39:37 10° SW 17:42:24 20° W 17:45:14 10° NW visible
